#timestamp,LO_Frequency,Hit,Temp,Hum 
1478314815.4,286046996.4,N,0.0,0.0
1478314835.3,286046994.1,N,0.0,0.0
1478314855.1,286046994.4,N,0.0,0.0
1478314856.0,286046994.4,N,0.0,0.0
1478314875.8,286046993.6,N,0.0,0.0
1478314895.7,286046995.5,N,0.0,0.0
1478314915.5,286046994.9,N,0.0,0.0
1478314935.3,286046995.8,N,0.0,0.0
1478314955.2,286046997.4,N,0.0,0.0
1478314975.9,286046993.7,N,0.0,0.0
1478314995.7,286046995.9,N,0.0,0.0
1478315015.5,286047002.6,N,0.0,0.0
1478315035.4,286046997.3,N,0.0,0.0
1478315055.2,286046997.7,N,0.0,0.0
1478315075.0,286046991.7,N,0.0,0.0
1478315075.9,286046991.7,N,0.0,0.0
1478315095.8,286046994.4,N,0.0,0.0
1478315115.6,286046990.3,N,0.0,0.0
1478315135.4,286046984.3,N,0.0,0.0
1478315155.3,286046994.4,N,0.0,0.0
1478315175.1,286047012.0,N,0.0,0.0
1478315195.8,286046999.5,N,0.0,0.0
1478315215.7,286047021.0,Y,0.0,0.0
1478315235.5,286047019.0,Y,0.0,0.0
1478315255.4,286047026.1,Y,0.0,0.0
1478315275.2,286047020.6,Y,0.0,0.0
1478315295.0,286047017.7,N,0.0,0.0
1478315295.9,286047017.7,N,0.0,0.0
1478315315.8,286047015.1,N,0.0,0.0
1478315335.6,286047016.8,N,0.0,0.0
1478315355.4,286047015.3,N,0.0,0.0
1478315375.3,286047013.3,N,0.0,0.0
1478315395.1,286047014.8,N,0.0,0.0
1478315396.0,286047014.8,N,0.0,0.0
1478315415.8,286047012.6,N,0.0,0.0
1478315435.7,286047007.9,N,0.0,0.0
1478315455.5,286047007.2,N,0.0,0.0
1478315475.3,286047001.8,N,0.0,0.0
1478315495.1,286047001.2,N,0.0,0.0
1478315515.9,286046993.7,N,0.0,0.0
1478315535.7,286046993.1,N,0.0,0.0
1478315555.5,286046989.9,N,0.0,0.0
1478315575.4,286046983.9,N,0.0,0.0
1478315595.2,286046991.6,N,0.0,0.0
1478315615.0,286046983.5,N,0.0,0.0
1478315615.9,286046983.5,N,0.0,0.0
1478315635.8,286046988.2,N,0.0,0.0
1478315655.6,286046989.6,N,0.0,0.0
1478315675.4,286046991.4,N,0.0,0.0
1478315695.3,286046986.9,N,0.0,0.0
1478315715.1,286047021.3,N,0.0,0.0
1478315735.8,286046990.1,N,0.0,0.0
1478315755.7,286046989.2,N,0.0,0.0
1478315775.5,286046985.2,N,0.0,0.0
1478315795.3,286046981.0,N,0.0,0.0
1478315815.2,286046979.9,N,0.0,0.0
1478315835.9,286046974.0,N,0.0,0.0
1478315855.7,286046991.4,N,0.0,0.0
1478315875.6,286047027.1,N,0.0,0.0
1478315895.4,286047105.3,Y,0.0,0.0
1478315915.2,286047021.1,N,0.0,0.0
1478315935.1,286047008.8,N,0.0,0.0
1478315936.0,286047008.8,N,0.0,0.0
1478315955.8,286047012.6,N,0.0,0.0
1478315975.6,286047013.2,N,0.0,0.0
1478315995.5,286047009.3,N,0.0,0.0
1478316015.3,286047011.6,N,0.0,0.0
1478316035.1,286047006.7,N,0.0,0.0
1478316055.8,286046997.6,N,0.0,0.0
1478316075.7,286047000.0,N,0.0,0.0
1478316095.5,286047003.1,N,0.0,0.0
1478316115.3,286047006.1,N,0.0,0.0
1478316135.2,286047004.0,N,0.0,0.0
1478316155.0,286047005.2,N,0.0,0.0
1478316155.9,286047005.2,N,0.0,0.0
1478316175.7,286047010.4,N,0.0,0.0
1478316195.6,286047010.0,N,0.0,0.0
1478316215.4,286047010.5,N,0.0,0.0
1478316235.2,286047010.1,N,0.0,0.0
1478316255.1,286047008.1,N,0.0,0.0
1478316256.0,286047008.1,N,0.0,0.0
1478316275.8,286047012.4,N,0.0,0.0
1478316295.6,286047009.2,N,0.0,0.0
1478316315.5,286047006.3,N,0.0,0.0
1478316335.3,286047006.7,N,0.0,0.0
1478316355.1,286047007.3,N,0.0,0.0
1478316375.9,286047007.9,N,0.0,0.0
1478316395.7,286047009.7,N,0.0,0.0
1478316415.5,286047009.8,N,0.0,0.0
1478316435.4,286047011.9,N,0.0,0.0
1478316455.2,286047012.3,N,0.0,0.0
1478316475.0,286047013.9,N,0.0,0.0
1478316475.9,286047013.9,N,0.0,0.0
1478316495.8,286047011.0,N,0.0,0.0
1478316515.6,286047012.1,N,0.0,0.0
1478316535.4,286047009.4,N,0.0,0.0
1478316555.2,286047011.6,N,0.0,0.0
1478316575.1,286047009.3,N,0.0,0.0
1478316576.0,286047009.3,N,0.0,0.0
1478316595.8,286047013.9,N,0.0,0.0
1478316615.6,286047010.7,N,0.0,0.0
1478316635.5,286047010.0,N,0.0,0.0
1478316655.3,286047008.1,N,0.0,0.0
1478316675.1,286047012.1,N,0.0,0.0
1478316695.9,286047012.4,N,0.0,0.0
1478316715.7,286047011.2,N,0.0,0.0
1478316735.5,286047010.7,N,0.0,0.0
1478316755.4,286047011.9,N,0.0,0.0
1478316775.2,286047013.1,N,0.0,0.0
1478316795.0,286047006.2,N,0.0,0.0
1478316795.9,286047006.2,N,0.0,0.0
1478316815.8,286047010.8,N,0.0,0.0
1478316835.6,286047009.0,N,0.0,0.0
1478316855.4,286047010.7,N,0.0,0.0
1478316875.3,286047011.9,N,0.0,0.0
1478316895.1,286047007.7,N,0.0,0.0
1478316896.0,286047007.7,N,0.0,0.0
1478316915.8,286047008.3,N,0.0,0.0
1478316935.7,286047012.0,N,0.0,0.0
1478316955.5,286047011.9,N,0.0,0.0
1478316975.3,286047010.4,N,0.0,0.0
1478316995.2,286047010.7,N,0.0,0.0
1478317015.9,286047008.1,N,0.0,0.0
1478317035.7,286047008.0,N,0.0,0.0
1478317055.5,286047009.9,N,0.0,0.0
1478317075.4,286047009.5,N,0.0,0.0
1478317095.2,286047010.5,N,0.0,0.0
1478317115.0,286047012.6,N,0.0,0.0
1478317115.9,286047012.6,N,0.0,0.0
1478317135.8,286047015.1,N,0.0,0.0
1478317155.6,286047012.0,N,0.0,0.0
1478317175.4,286047011.1,N,0.0,0.0
1478317195.3,286047012.2,N,0.0,0.0
1478317215.1,286047011.3,N,0.0,0.0
1478317235.8,286047011.2,N,0.0,0.0
1478317255.7,286047011.7,N,0.0,0.0
1478317275.5,286047010.4,N,0.0,0.0
1478317295.3,286047010.8,N,0.0,0.0
1478317315.2,286047010.3,N,0.0,0.0
1478317335.9,286047010.6,N,0.0,0.0
1478317355.7,286047010.4,N,0.0,0.0
1478317375.6,286047011.5,N,0.0,0.0
1478317395.4,286047011.1,N,0.0,0.0
1478317415.2,286047011.7,N,0.0,0.0
1478317435.1,286047011.0,N,0.0,0.0
1478317436.0,286047011.0,N,0.0,0.0
1478317455.8,286047014.9,N,0.0,0.0
1478317475.6,286047009.6,N,0.0,0.0
1478317495.4,286047010.6,N,0.0,0.0
1478317515.3,286047011.9,N,0.0,0.0
1478317535.1,286047010.6,N,0.0,0.0
1478317555.8,286047008.5,N,0.0,0.0
1478317575.7,286047009.1,N,0.0,0.0
1478317595.5,286047006.4,N,0.0,0.0
1478317615.3,286047004.8,N,0.0,0.0
1478317635.2,286047007.8,N,0.0,0.0
1478317655.9,286047006.7,N,0.0,0.0
1478317675.7,286047002.0,N,0.0,0.0
1478317695.6,286046998.2,N,0.0,0.0
1478317715.4,286046999.6,N,0.0,0.0
1478317735.2,286046998.4,N,0.0,0.0
1478317755.1,286047001.3,N,0.0,0.0
1478317756.0,286047001.3,N,0.0,0.0
1478317775.8,286047006.9,N,0.0,0.0
1478317795.6,286047006.1,N,0.0,0.0
1478317815.5,286047012.3,N,0.0,0.0
1478317835.3,286047011.3,N,0.0,0.0
1478317855.1,286047014.3,N,0.0,0.0
1478317875.9,286047017.7,N,0.0,0.0
1478317895.7,286047021.7,N,0.0,0.0
1478317915.5,286047023.5,N,0.0,0.0
1478317935.3,286047023.3,N,0.0,0.0
1478317955.2,286047024.4,N,0.0,0.0
1478317975.0,286047026.8,N,0.0,0.0
1478317975.9,286047026.8,N,0.0,0.0
1478317995.7,286047026.4,N,0.0,0.0
1478318015.6,286047026.5,N,0.0,0.0
1478318035.4,286047025.8,N,0.0,0.0
1478318055.2,286047026.7,N,0.0,0.0
1478318075.1,286047028.1,N,0.0,0.0
1478318076.0,286047028.1,N,0.0,0.0
1478318095.8,286047028.4,N,0.0,0.0
1478318115.6,286047028.4,N,0.0,0.0
1478318135.5,286047027.9,N,0.0,0.0
1478318155.3,286047025.6,N,0.0,0.0
1478318175.1,286047026.2,N,0.0,0.0
1478318195.9,286047026.8,N,0.0,0.0
1478318215.7,286047023.9,N,0.0,0.0
1478318235.5,286047022.8,Y,0.0,0.0
1478318255.4,286047010.3,N,0.0,0.0
1478318275.2,286047009.4,N,0.0,0.0
1478318295.0,286047008.6,N,0.0,0.0
1478318295.9,286047008.6,N,0.0,0.0
1478318315.8,286047006.2,N,0.0,0.0
1478318335.6,286047008.4,N,0.0,0.0
1478318355.4,286047008.7,N,0.0,0.0
1478318375.3,286047008.7,N,0.0,0.0
1478318395.1,286047004.7,N,0.0,0.0
1478318396.0,286047004.7,N,0.0,0.0
